Regional Weather Roundup
Issued by NWS Grand Forks, ND

Home | Current Version | Previous Version | Graphics & Text | Print | Product List | Glossary On
Versions: 1 2 3 4 5 6 7 8 9 10 11 12 13 14 15 16 17 18 19 20 21 22 23 24 25 26 27 28 29 30 31 32 33 34 35 36 37 38 39 40 41 42 43 44 45 46 47 48 49 50
000
ASUS43 KFGF 060731
RWRFGF
PRAIRIE TO PINES  WEATHER ROUNDUP
NATIONAL WEATHER SERVICE EASTERN NORTH DAKOTA/GRAND FORKS ND
200 AM CDT FRI MAY 06 2016

 **SATELLITE DATA USED TO AUGMENT SKY COVER AT AUTOMATED STATIONS**
 *****  WEATHER ACROSS EASTERN NORTH DAKOTA  *****

CITY           SKY/WX    TMP DP  RH WIND       PRES   REMARKS
GRAND FORKS    CLEAR     62  44  51 SW10      29.70S
GRAND FRKS AFB CLEAR     61  45  55 SW7       29.71R
DEVILS LAKE    CLEAR     64  45  49 SW9       29.73S
FARGO          CLEAR     69  41  36 SW13      29.76S
WAHPETON ARPT  SUNNY     59  39  47 S5        29.81S
$$

 ***** WEATHER ACROSS CENTRAL AND WESTERN NORTH DAKOTA  *****

CITY           SKY/WX    TMP DP  RH WIND       PRES   REMARKS
BISMARCK       CLEAR     58  47  66 E3        29.78S
MINOT          PTCLDY    73  37  27 SW12      29.74R
JAMESTOWN      CLOUDY    57  48  72 S7        29.77S
MINOT AFB      MOCLDY    62  41  45 SW8       29.72R
GARRISON         N/A     60  40  47 S3        29.76R
WILLISTON      CLOUDY    63  42  46 CALM      29.81R
DICKINSON      PTCLDY    58  43  57 S10       29.79F
HETTINGER      MOCLDY    54  46  74 CALM      29.85S
$$

 *****  OTHER AIRPORT OBSERVATIONS IN OUR AREA  *****

CITY           SKY/WX    TMP DP  RH WIND       PRES   REMARKS
WALHALLA       FAIR      73  41  31 SW13G21   29.66S
GRAFTON AIRPOR FAIR      61  43  51 SW7       29.70S
VALLEY CITY AR FAIR      64  46  52 SW13      29.80S
CANDO          FAIR      59  41  51 W7        29.73S
CAVALIER APRT  FAIR      72  41  33 SW9       29.66S
GWINNER        FAIR      63  45  51 SW10      29.81S
ROLLA          FAIR      63  39  42 W12       29.73R
 ***** THE ABOVE OBSERVATIONS ARE NON NWS ARE NOT QUALITY
       CONTROLLED AND MAY MIS-REPORT RAIN FOR SNOW...
$$

  *****  WEATHER ACROSS NORTHERN MINNESOTA  *****

CITY           SKY/WX    TMP DP  RH WIND       PRES   REMARKS
FLAG ISLAND    PTCLDY    66  39  37 SW13      29.64S
WARROAD        CLEAR     66  45  45 SW5       29.68S
ROSEAU         CLEAR     66  43  42 SW10      29.68S
HALLOCK        CLEAR     64  34  32 SW9       29.66S
THF RVR FALLS  CLEAR     66  37  34 S12       29.74S
BAUDETTE       CLEAR     68  37  32 SW8       29.68S
WASKISH        CLOUDY    70  43  37 SW13      29.73S
CROOKSTON      CLEAR     64  39  39 SW10      29.73S
STEPHEN NDAWN    N/A     64  39  39 SW9         N/A
GREENBUSH NDAW   N/A     64  39  39 S7          N/A
$$
  *****  WEATHER ACROSS CENTRAL AND WEST MINNESOTA  *****

CITY           SKY/WX    TMP DP  RH WIND       PRES   REMARKS
FOSSTON        CLEAR     55  39  54 S9        29.78S
BEMIDJI        PTCLDY    66  40  38 SW7       29.78S
PARK RAPIDS    CLEAR     65  41  41 SW9       29.81S
ELBOW LAKE     FAIR      58  44  58 S9        29.84F
WADENA         CLEAR     66  43  42 SW7       29.83S
DETROIT LAKES  CLOUDY    68  41  37 SW16      29.82S
MOORHEAD       CLEAR     61  43  51 S9        29.79S
FERGUS FALLS   PTCLDY    61  45  55 S6        29.80S
MORRIS MN      CLEAR     57  45  62 S8        29.85S
STAPLES        CLEAR     64  39  39 SW9       29.83S
$$
  *****  WEATHER ELSEWHERE ACROSS MINNESOTA  *****

CITY           SKY/WX    TMP DP  RH WIND       PRES   REMARKS
DULUTH         PTCLDY    63  42  46 W13       29.78S
INTRNTL FALLS  PTCLDY    61  40  45 SW5       29.70S
ELY            CLEAR     63  41  45 SW6       29.74S
CLOQUET        CLEAR     70  37  30 W14       29.78F
WHEATON        CLEAR     64  45  48 S10       29.84F
BRAINERD       CLEAR     62  41  46 S5        29.83S
HIBBING        CLEAR     47  42  83 CALM      29.77S
ALEXANDRIA     CLEAR     63  44  50 SW10      29.88R
SAINT CLOUD    CLEAR     64  44  48 W9        29.85S
MINNEAPOLIS    CLEAR     65  41  41 SW8       29.86F
$$

  *****  WEATHER ACROSS SOUTH DAKOTA  *****

CITY           SKY/WX    TMP DP  RH WIND       PRES   REMARKS
SIOUX FALLS    CLEAR     61  43  51 SW9       29.92F
BROOKINGS      CLEAR     58  44  60 S10       29.91S
WATERTOWN      CLEAR     57  44  62 SE9       29.89S
HURON          CLEAR     61  47  59 S12       29.85F
SISSETON         N/A     71  39  31 SW20G29   29.81F
ABERDEEN       PTCLDY    60  46  59 S12       29.81F
MITCHELL       CLEAR     61  49  64 S12       29.88F
PIERRE         CLEAR     62  49  62 SW7       29.80R
MOBRIDGE       CLEAR     61  50  67 SE8       29.77F
RAPID CITY     PTCLDY    53  43  68 NW6       29.87F
$$

  *****  SOME WEATHER IN NEARBY STATES *****

CITY           SKY/WX    TMP DP  RH WIND       PRES   REMARKS
GLASGOW MT     CLOUDY    63  42  46 N24G31    29.88R
GREAT FALLS MT CLOUDY    52  40  63 N14       30.14R
CHEYENNE WY    CLOUDY    58  37  45 S8        30.07S
SCOTTSBLUFF NE MOCLDY    66  41  40 S8        29.96S
OMAHA NE       PTCLDY    59  46  62 SE9       30.00S
DES MOINES IA  PTCLDY    55  41  59 SW6       30.00S
DAVENPORT IA   CLEAR     48  39  71 SW5       30.01S
CHICAGO IL     CLEAR     46  39  76 SW3       29.97F
EAU CLAIRE WI  CLEAR     52  41  66 S3        29.86S
LA CROSSE WI   CLEAR     57  45  64 E8        29.91F
$$

  *****  SOME NATIONAL WEATHER *****

CITY           SKY/WX    TMP DP  RH WIND       PRES   REMARKS
LA GUARDIA NY  RAIN      50  48  93 NE12      29.68R
RALEIGH NC     LGT RAIN  50  49  96 VRB3      29.66F FOG
ATLANTA GA     PTCLDY    48  39  71 NW9       29.86F
NEW ORLEANS LA CLEAR     69  47  45 N15G21    29.97F
OKLAHOMA CITY  PTCLDY    56  47  71 SE9       30.05F
ALBUQUERQUE NM PTCLDY    67  23  19 SE13      30.00S
SALT LAKE CITY CLOUDY    71  36  27 SE7       29.79F
LOS ANGELES CA MOCLDY    59  55  87 SE13      29.89S
BOISE ID       CLOUDY    60  48  64 W12       29.79S
SEATTLE WA     PTCLDY    60  47  61 NE8       30.07R
$$

*** WEATHER ACROSS MANITOBA...SASKATCHEWAN AND ONTARIO ***
                ***ONTARIO***

CITY           SKY/WX    TMP DP  RH WIND       PRES   REMARKS
GERALDTON      CLEAR     39  32  75 S5        29.79S
THUNDER BAY    CLEAR     43  36  75 E13       29.76F
SIOUX LOOKOUT  MOCLDY    59  46  63 E3        29.65R
TORONTO        CLEAR     50  37  62 N15G22    29.82S
BIG TROUT LK   FRZ RAIN  30  21  69 E8G17     29.82F WCI  23
PICKLE LAKE    NOT AVBL
DRYDEN         MOCLDY    66  43  42 W8        29.66R
KENORA         PTCLDY    66  39  37 W5        29.66R
$$
                *** MANITOBA***

CITY           SKY/WX    TMP DP  RH WIND       PRES   REMARKS
BRANDON        PTCLDY    61  39  44 W13       29.67R
DAUPHIN        CLEAR     64  46  52 N10       29.67R
ISLAND LAKE    MOCLDY    45  28  53 NE9       29.67R
PILOT MOUND      N/A     66  41  39 SW8         N/A
THE PAS        LGT RAIN  45  39  81 N12       29.86R
THOMPSON       FRZ RAIN  30  27  86 NE7       29.85  WCI  23
WINNIPEG       MOCLDY    68  39  34 S8        29.60F
LYNN LAKE      PTCLDY    36  34  93 S2        29.83F
CHURCHILL      CLOUDY    25  19  80 SE9       29.98F WCI  15
GILLAM         CLOUDY    27  23  86 E6        29.88F WCI  20
$$
                ***SASKATCHEWAN***

CITY           SKY/WX    TMP DP  RH WIND       PRES   REMARKS
ESTEVAN        PTCLDY    57  41  54 NW12      29.79R
KINDERSLEY     CLEAR     45  36  70 NW10      30.10R
LLOYDMINSTER   PTCLDY    43  39  87 W9        30.08R
PRINCE ALBERT  PTCLDY    46  37  71 NW7       30.01R
REGINA         MOCLDY    59  41  51 N28G36    29.90R
YORKTON        CLEAR     59  45  58 NW16G22   29.80R
N. BATTLEFORD  CLEAR     45  36  70 NW6       30.09R
LA RONGE       MOCLDY    43  39  87 SW5       29.94R
SASKATOON      MOCLDY    46  39  76 NW9       30.04R
SWIFT CURRENT  MOCLDY    48  39  71 NW14      30.05R
$$
NOTE: THESE ARE AUTOMATED STATIONS WITH LIMITED QUALITY CONTROL
      "FAIR" INDICATES FEW OR NO CLOUDS BELOW 12,000 FEET WITH NO
      SIGNIFICANT WEATHER AND/OR OBSTRUCTIONS TO VISIBILITY.
      SKY/WX - SKY CONDITION AND SIGNIFICANT WEATHER.
      TMP - AIR TEMPERATURE.    DP   - DEWPOINT TEMPERATURE.
      RH  - RELATIVE HUMIDITY.  PRES - PRESSURE.
      HX  - HEAT INDEX.         WCI  - WIND CHILL INDEX.
$




USA.gov is the U.S. government's official web portal to all federal, state and local government web resources and services.